Regional Weather Roundup
Issued by NWS

Home | Current Version | Previous Version | Text Only | Print | Product List | Glossary On
Versions: 1 2 3 4 5 6 7 8 9 10 11 12 13 14 15 16 17 18 19 20 21 22 23 24 25 26 27 28 29 30 31 32 33 34 35 36 37 38 39 40 41 42 43 44 45 46 47 48 49 50
000
ASUS44 KOUN 290310
RWROK

WEATHER ROUNDUP FOR OKLAHOMA
NATIONAL WEATHER SERVICE NORMAN OK
1000 PM CDT WED SEP 28 2016

NOTE: "FAIR" INDICATES FEW OR NO CLOUDS BELOW 12,000 FEET WITH NO
      SIGNIFICANT WEATHER AND/OR OBSTRUCTIONS TO VISIBILITY.

OKZ001>007-009>012-014-015-017-290400-
NORTHWEST OKLAHOMA AND THE PANHANDLE

CITY           SKY/WX    TMP DP  RH WIND       PRES   REMARKS
GAGE           CLEAR     61  50  67 CALM      30.25R
GUYMON         CLEAR     69  43  38 E9        30.27R
ENID/WOODRING  CLEAR     63  50  63 NE10      30.21R
$$

OKZ016-021>023-033>039-044-045-290400-
SOUTHWEST OKLAHOMA

CITY           SKY/WX    TMP DP  RH WIND       PRES   REMARKS
LAWTON/REGL    CLEAR     73  50  44 N12       30.15R
LAWTON/FT SILL CLEAR     69  56  62 N10       30.15R
FREDERICK      CLEAR     67  56  67 N9        30.13R
CLINTON        CLEAR     67  50  54 NE12      30.23R
HOBART         CLEAR     68  53  58 NE12      30.19R
ALTUS AFB      CLEAR     63  54  73 N5        30.17R
$$

OKZ018>020-024>031-290400-
CENTRAL OKLAHOMA

CITY           SKY/WX    TMP DP  RH WIND       PRES   REMARKS
OKLAHOMA CITY  PTCLDY    69  43  38 N12       30.18R
OKC/WILEY POST CLEAR     65  44  46 N9        30.19R
OKC/TINKER AFB CLEAR     66  45  47 N9        30.18R
STILLWATER     CLEAR     58  49  72 N5        30.20R
GUTHRIE        CLEAR     63  47  55 NE8       30.19R
$$

OKZ008-013-054>072-290400-
NORTHEAST OKLAHOMA

CITY           SKY/WX    TMP DP  RH WIND       PRES   REMARKS
TULSA          CLEAR     65  48  54 N12       30.17R
TULSA/JONES    CLEAR     66  47  50 N9G20     30.18R
PONCA CITY     CLEAR     56  48  74 NE6       30.22R
BARTLESVILLE   CLEAR     59  48  67 N5        30.22R
MUSKOGEE       CLEAR     65  49  56 N10       30.16R
$$

OKZ032-040>043-046>053-073>077-290400-
SOUTH CENTRAL/SOUTHEAST OKLAHOMA

CITY           SKY/WX    TMP DP  RH WIND       PRES   REMARKS
ARDMORE/DWNTWN CLEAR     72  52  49 NE5       30.11R
MCALESTER      MOCLDY    71  47  42 N8        30.13R
$$





USA.gov is the U.S. government's official web portal to all federal, state and local government web resources and services.